Regional Weather Roundup
Issued by NWS Kansas City/Pleasant Hill, MO

Home | Current Version | Previous Version | Graphics & Text | Print | Product List | Glossary Off
Versions: 1 2 3 4 5 6 7 8 9 10 11 12 13 14 15 16 17 18 19 20 21 22 23 24 25 26 27 28 29 30 31 32 33 34 35 36 37 38 39 40 41 42 43 44 45 46 47 48 49 50

000
ASUS43 KEAX 050904
RWREAX

WEATHER ROUNDUP FOR EASTERN KANSAS AND NORTHWEST MISSOURI
NATIONAL WEATHER SERVICE KANSAS CITY/PLEASANT HILL MO
400 AM CDT TUE MAY 05 2015

KSZ040-057-103>105-MOZ028-029-037-043-051000-
...KANSAS CITY METROPOLITAN AREA...

CITY           SKY/WX    TMP DP  RH WIND       PRES   REMARKS
K.C. INTL      CLOUDY    59  59 100 S5        30.06S
K.C. DOWNTOWN  CLOUDY    63  60  90 SW5       30.06S
LEES SUMMIT    MOCLDY    62  60  93 SE5       30.08F
OLATHE - IXD   CLOUDY    62  60  93 SE9       30.08F
OLATHE - OJC   CLOUDY    61  60  97 S5        30.07F FOG
LAWRENCE       CLOUDY    61  60  97 CALM      30.07S

$$

MOZ001>008-011>017-020>025-030>033-038>040-044>046-053-054-051000-
...NORTHERN AND CENTRAL MISSOURI...

CITY           SKY/WX    TMP DP  RH WIND       PRES   REMARKS
ST. JOSEPH     MOCLDY    59  58  96 CALM      30.07F
MOSBY          PTSUNNY   61  61 100 CALM      30.07S FOG
WARRENSBURG    PTCLDY    59  57  94 CALM      30.09S
WHITEMAN AFB   PTCLDY    62  60  94 SE6       30.08S
CLINTON        PTCLDY    64  59  82 S3        30.10S
SEDALIA        MOCLDY    64  59  83 S3        30.11R
WARSAW         NOT AVBL
MARSHALL       MOCLDY    64  63  94 CALM      30.10S
CHILLICOTHE      N/A     60  58  92 CALM      30.09R
KIRKSVILLE     FOG       59  59 100 CALM      30.10R VSB 1/4

$$

MOZ041-047>049-056>058-063>065-088>090-097-051000-
...EASTERN AND SOUTHERN MISSOURI...

CITY           SKY/WX    TMP DP  RH WIND       PRES   REMARKS
ST. LOUIS INTL CLOUDY    71  54  54 SW7       30.14S
SPIRIT OF STL  CLOUDY    67  55  65 S5        30.12S
COLUMBIA       MOCLDY    64  56  75 W7        30.12R
JEFFERSON CITY MOCLDY    68  55  63 S5        30.11S
MEXICO         CLOUDY    66  61  82 SW6       30.11S
HANNIBAL       CLOUDY    64  63  94 SE5       30.09S
ROLLA          MOCLDY    61  55  81 S7        30.14R
LEBANON        CLEAR     61  54  77 S5        30.15S
OSAGE BEACH    PTCLDY    61  54  77 SE5       30.13S
SPRINGFIELD    CLOUDY    61  54  77 SE8       30.13S
BRANSON        CLOUDY    61  55  82 CALM      30.16R
NEVADA         CLEAR     61  55  82 S8        30.11S
JOPLIN         CLEAR     63  54  72 SE9       30.11S
WEST PLAINS    CLEAR     57  53  86 CALM      30.18S

$$

IAZ060-094-KSZ022-034>040-054-083-096-NEZ052-066-093-051000-
...KANSAS...SOUTHEAST NEBRASKA AND IOWA...

CITY           SKY/WX    TMP DP  RH WIND       PRES   REMARKS
TOPEKA         MOCLDY    62  60  93 CALM      30.07S
MANHATTAN      MOCLDY    59  59 100 CALM      30.05F
EMPORIA        PTCLDY    59  57  93 CALM      30.07S
CHANUTE        PTCLDY    59  56  89 SE6       30.08S
WICHITA        MOCLDY    66  55  67 SE9       30.04S
OMAHA          CLOUDY    58  57  97 N8        30.03F FOG
LINCOLN        CLOUDY    61  59  93 CALM      30.03F
FALLS CITY     MOCLDY    61  61 100 S6        30.04F
LAMONI         LGT RAIN  62  60  93 SE6       30.10R VSB 3/4
DES MOINES     CLOUDY    63  61  93 NW3       30.08R FOG

$$



USA.gov is the U.S. government's official web portal to all federal, state and local government web resources and services.